Crosby, ND

6:49 AM CDT on June 28, 2017 (GMT -0500)
Crosby

Weather History for KD50 - April, 2013

Change the Weather History Date:

Thursday, April 4, 2013

  Actual Average (KISN) Record (KISN)
Temperature  
Mean Temperature 24 °F -  
Max Temperature 30 °F 50 °F 74 °F (1991)
Min Temperature 19 °F 25 °F -2 °F (1920)
Degree Days  
Heating Degree Days 40    
Moisture  
Dew Point 22 °F    
Average Humidity 87    
Maximum Humidity 93    
Minimum Humidity 75    
Precipitation  
Precipitation 0.00 in - - ()
Sea Level Pressure  
Sea Level Pressure 30.20 in    
Wind  
Wind Speed 10 mph (NNE)    
Max Wind Speed 15 mph    
Max Gust Speed -    
Visibility 10 miles    
Events      
Averages and records for this station are not official NWS values.
T = Trace of Precipitation, MM = Missing Value Source: NWS Daily Summary

Daily Weather History Graph

Daily Weather History Graph

Search for Another Location

Airport or City:

Trip Planner

Search our weather history database for the weather conditions in past years. The results will help you decide how hot, cold, wet, or windy it might be!

Date:

Astronomy

Apr. 04, 2013 Rise Set
Actual Time 7:23 AM CDT 8:29 PM CDT
Civil Twilight 6:51 AM CDT 9:01 PM CDT
Nautical Twilight 6:12 AM CDT 9:40 PM CDT
Astronomical Twilight 5:31 AM CDT 10:22 PM CDT
Moon 4:20 AM CDT (4/4) 2:22 PM CDT (4/4)
Length of Visible Light 14h 09m
Length of Day
13h 05m
Waning Crescent, 33% of the Moon is Illuminated
Apr 4
Waning Crescent
Apr 10
New
Apr 18
First Quarter
Apr 25
Full
May 2
Last Quarter

Hourly Weather History & Observations

Time (CDT) Temp. Windchill Dew Point Humidity Pressure Visibility Wind Dir Wind Speed Gust Speed Precip Events Conditions
12:15 AM 26.6 °F 15.7 °F 24.8 °F 93% 30.16 in 10.0 mi NW 12.7 mph - N/A   Clear
12:35 AM 26.6 °F 14.7 °F 24.8 °F 93% 30.16 in 10.0 mi NW 15.0 mph - N/A   Partly Cloudy
12:55 AM 26.6 °F 15.2 °F 24.8 °F 93% 30.17 in 10.0 mi NW 13.8 mph - N/A   Clear
1:15 AM 26.6 °F 15.2 °F 24.8 °F 93% 30.17 in 10.0 mi NW 13.8 mph - N/A   Clear
1:35 AM 24.8 °F 12.4 °F 23.0 °F 93% 30.18 in 10.0 mi NW 15.0 mph - N/A   Partly Cloudy
1:55 AM 24.8 °F 12.9 °F 23.0 °F 93% 30.18 in 10.0 mi NW 13.8 mph - N/A   Partly Cloudy
2:15 AM 24.8 °F 14.0 °F 23.0 °F 93% 30.19 in 10.0 mi NW 11.5 mph - N/A   Clear
2:35 AM 24.8 °F 13.4 °F 21.2 °F 86% 30.18 in 10.0 mi NW 12.7 mph - N/A   Clear
2:55 AM 23.0 °F 11.7 °F 21.2 °F 93% 30.18 in 10.0 mi NW 11.5 mph - N/A   Partly Cloudy
3:15 AM 23.0 °F 13.1 °F 21.2 °F 93% 30.19 in 10.0 mi WNW 9.2 mph - N/A   Partly Cloudy
3:35 AM 24.8 °F 16.1 °F 23.0 °F 93% 30.20 in 10.0 mi WNW 8.1 mph - N/A   Partly Cloudy
3:55 AM 24.8 °F 16.1 °F 23.0 °F 93% 30.19 in 10.0 mi NW 8.1 mph - N/A   Scattered Clouds
4:15 AM 24.8 °F 14.6 °F 23.0 °F 93% 30.20 in 10.0 mi WNW 10.4 mph - N/A   Scattered Clouds
4:35 AM 24.8 °F 14.6 °F 23.0 °F 93% 30.20 in 10.0 mi WNW 10.4 mph - N/A   Scattered Clouds
4:55 AM 24.8 °F 14.0 °F 23.0 °F 93% 30.21 in 10.0 mi WNW 11.5 mph - N/A   Partly Cloudy
5:15 AM 24.8 °F 14.6 °F 23.0 °F 93% 30.22 in 10.0 mi NW 10.4 mph - N/A   Clear
5:35 AM 24.8 °F 14.6 °F 23.0 °F 93% 30.21 in 10.0 mi NW 10.4 mph - N/A   Partly Cloudy
5:55 AM 24.8 °F 14.0 °F 23.0 °F 93% 30.22 in 10.0 mi NW 11.5 mph - N/A   Partly Cloudy
6:15 AM 24.8 °F 15.3 °F 23.0 °F 93% 30.22 in 10.0 mi NW 9.2 mph - N/A   Clear
6:35 AM 24.8 °F 15.3 °F 21.2 °F 86% 30.21 in 10.0 mi NW 9.2 mph - N/A   Clear
6:55 AM 23.0 °F 14.7 °F 19.4 °F 86% 30.22 in 10.0 mi NW 6.9 mph - N/A   Clear
7:15 AM 19.4 °F 8.6 °F 17.6 °F 93% 30.22 in 10.0 mi NW 9.2 mph - N/A   Clear
7:35 AM 19.4 °F 8.6 °F 17.6 °F 93% 30.23 in 10.0 mi NW 9.2 mph - N/A   Clear
7:55 AM 19.4 °F 8.6 °F 17.6 °F 93% 30.23 in 10.0 mi NW 9.2 mph - N/A   Clear
8:15 AM 19.4 °F 7.9 °F 17.6 °F 93% 30.24 in 10.0 mi NW 10.4 mph - N/A   Clear
8:35 AM 23.0 °F 13.9 °F 19.4 °F 86% 30.24 in 10.0 mi NW 8.1 mph - N/A   Clear
8:55 AM 23.0 °F 13.9 °F 19.4 °F 86% 30.24 in 10.0 mi NW 8.1 mph - N/A   Clear
9:15 AM 23.0 °F 13.1 °F 19.4 °F 86% 30.24 in 10.0 mi NW 9.2 mph - N/A   Clear
9:35 AM 23.0 °F 13.1 °F 19.4 °F 86% 30.25 in 10.0 mi NW 9.2 mph - N/A   Clear
9:55 AM 23.0 °F 12.4 °F 19.4 °F 86% 30.26 in 10.0 mi NW 10.4 mph - N/A   Clear
10:15 AM 23.0 °F 12.4 °F 21.2 °F 93% 30.26 in 10.0 mi NW 10.4 mph - N/A   Clear
10:35 AM 24.8 °F 16.1 °F 21.2 °F 86% 30.26 in 10.0 mi NW 8.1 mph - N/A   Clear
10:55 AM 24.8 °F 16.9 °F 21.2 °F 86% 30.26 in 10.0 mi NW 6.9 mph - N/A   Clear
11:35 AM 24.8 °F 16.1 °F 23.0 °F 93% 30.26 in 10.0 mi North 8.1 mph - N/A   Clear
11:55 AM 24.8 °F 17.9 °F 23.0 °F 93% 30.26 in 10.0 mi North 5.8 mph - N/A   Clear
12:15 PM 26.6 °F 20.0 °F 23.0 °F 86% 30.26 in 10.0 mi NE 5.8 mph - N/A   Clear
12:35 PM 26.6 °F 22.6 °F 23.0 °F 86% 30.26 in 10.0 mi NNE 3.5 mph - N/A   Clear
12:55 PM 28.4 °F 24.6 °F 23.0 °F 80% 30.25 in 10.0 mi East 3.5 mph - N/A   Clear
1:15 PM 28.4 °F 24.6 °F 23.0 °F 80% 30.25 in 10.0 mi East 3.5 mph - N/A   Clear
1:35 PM 28.4 °F - 23.0 °F 80% 30.25 in 10.0 mi Calm Calm - N/A   Clear
1:55 PM 28.4 °F - 23.0 °F 80% 30.25 in 10.0 mi Calm Calm - N/A   Clear
2:15 PM 28.4 °F - 23.0 °F 80% 30.24 in 10.0 mi Calm Calm - N/A   Clear
2:35 PM 30.2 °F - 23.0 °F 75% 30.23 in 10.0 mi Calm Calm - N/A   Clear
2:55 PM 30.2 °F 24.3 °F 23.0 °F 75% 30.23 in 10.0 mi East 5.8 mph - N/A   Clear
3:15 PM 30.2 °F 24.3 °F 23.0 °F 75% 30.22 in 10.0 mi East 5.8 mph - N/A   Clear
3:35 PM 30.2 °F 23.4 °F 23.0 °F 75% 30.21 in 10.0 mi ENE 6.9 mph - N/A   Clear
3:55 PM 28.4 °F 21.2 °F 23.0 °F 80% 30.22 in 10.0 mi East 6.9 mph - N/A   Clear
4:15 PM 30.2 °F 23.4 °F 23.0 °F 75% 30.22 in 10.0 mi East 6.9 mph - N/A   Clear
4:35 PM 28.4 °F 20.4 °F 23.0 °F 80% 30.22 in 10.0 mi East 8.1 mph - N/A   Clear
4:55 PM 30.2 °F 22.6 °F 23.0 °F 75% 30.21 in 10.0 mi East 8.1 mph - N/A   Clear
5:15 PM 28.4 °F 19.7 °F 23.0 °F 80% 30.20 in 10.0 mi East 9.2 mph - N/A   Clear
5:35 PM 28.4 °F 19.1 °F 23.0 °F 80% 30.20 in 10.0 mi East 10.4 mph - N/A   Clear
5:55 PM 28.4 °F 19.7 °F 23.0 °F 80% 30.20 in 10.0 mi East 9.2 mph - N/A   Clear
6:15 PM 28.4 °F 19.1 °F 24.8 °F 86% 30.20 in 10.0 mi East 10.4 mph - N/A   Clear
6:35 PM 28.4 °F 19.7 °F 24.8 °F 86% 30.19 in 10.0 mi East 9.2 mph - N/A   Clear
6:55 PM 28.4 °F 19.1 °F 24.8 °F 86% 30.18 in 10.0 mi East 10.4 mph - N/A   Clear
7:15 PM 28.4 °F 18.5 °F 23.0 °F 80% 30.18 in 10.0 mi East 11.5 mph - N/A   Clear
7:35 PM 26.6 °F 16.2 °F 23.0 °F 86% 30.17 in 10.0 mi East 11.5 mph - N/A   Clear
7:55 PM 26.6 °F 16.2 °F 23.0 °F 86% 30.16 in 10.0 mi East 11.5 mph - N/A   Clear
8:15 PM 24.8 °F 14.6 °F 21.2 °F 86% 30.16 in 10.0 mi East 10.4 mph - N/A   Clear
8:35 PM 24.8 °F 14.0 °F 21.2 °F 86% 30.15 in 10.0 mi East 11.5 mph - N/A   Clear
8:55 PM 24.8 °F 14.6 °F 21.2 °F 86% 30.14 in 10.0 mi East 10.4 mph - N/A   Clear
9:15 PM 24.8 °F 16.1 °F 21.2 °F 86% 30.14 in 10.0 mi East 8.1 mph - N/A   Clear
9:35 PM 23.0 °F 13.1 °F 21.2 °F 93% 30.14 in 10.0 mi ESE 9.2 mph - N/A   Clear
9:55 PM 23.0 °F 13.9 °F 19.4 °F 86% 30.14 in 10.0 mi ESE 8.1 mph - N/A   Clear
10:15 PM 23.0 °F 13.1 °F 19.4 °F 86% 30.13 in 10.0 mi ESE 9.2 mph - N/A   Clear
10:35 PM 23.0 °F 13.9 °F 19.4 °F 86% 30.13 in 10.0 mi ESE 8.1 mph - N/A   Clear
10:55 PM 23.0 °F 13.9 °F 19.4 °F 86% 30.12 in 10.0 mi ESE 8.1 mph - N/A   Clear
11:15 PM 23.0 °F 13.1 °F 19.4 °F 86% 30.11 in 10.0 mi ESE 9.2 mph - N/A   Clear
11:35 PM 23.0 °F 12.4 °F 19.4 °F 86% 30.11 in 10.0 mi ESE 10.4 mph - N/A   Clear
11:55 PM 23.0 °F 12.4 °F 19.4 °F 86% 30.10 in 10.0 mi ESE 10.4 mph - N/A   Partly Cloudy